Theta_e
294 294 295 296 296 295 296 296 297 298 298 299 300 301 302 302 301 300 301 302 304 304 303 302 302 302 302 301 301 300 301 301 301 301 302 300 299 299 299 300 299 299 299 300 300 301 302 302 302 302 303 303 304 303 303 302 301 301 300 299 298 299
293 294 294 295 296 296 296 295 295 297 298 298 299 299 298 298 298 299 300 301 301 302 300 300 301 301 301 300 300 300 301 301 301 300 299 300 299 299 299 299 299 298 297 296 296 297 297 297 298 298 299 298 300 298 297 296 297 297 297 296 294 295
294 293 292 293 292 292 292 294 297 298 297 298 298 299 299 298 299 299 300 299 300 298 299 299 298 298 299 298 299 300 300 300 299 299 299 295 298 297 297 297 297 298 297 296 295 296 296 295 296 295 295 296 296 295 296 295 295 296 295 294 292 292
294 292 290 288 288 291 291 295 294 295 296 298 298 298 299 299 299 299 300 298 299 298 298 297 294 297 297 297 297 298 299 298 297 297 293 295 295 295 296 296 297 297 296 295 295 295 295 295 296 295 294 295 295 295 295 295 294 294 294 293 293 291
292 290 290 292 292 292 291 291 295 296 296 295 295 297 298 299 300 299 297 297 297 297 295 294 295 295 294 295 296 295 296 295 293 292 294 293 291 291 294 295 296 296 296 295 294 294 293 294 294 293 293 294 295 295 294 294 294 294 293 292 292 291
289 288 291 292 291 289 292 293 293 294 294 295 294 296 297 296 297 296 296 295 295 294 293 294 294 292 293 293 294 294 293 292 292 290 292 292 290 291 291 293 295 295 295 295 294 294 293 293 292 292 292 294 294 295 295 293 293 293 294 293 292 291
294 294 294 292 288 289 290 291 292 293 294 293 295 296 296 296 295 295 295 295 295 293 294 293 292 292 292 293 293 293 291 291 290 289 292 291 291 291 290 291 292 293 294 294 294 293 293 293 292 292 291 292 292 293 294 293 293 293 293 293 292 290
295 295 295 294 293 291 291 290 291 292 292 294 294 296 295 295 293 295 296 295 295 295 293 293 292 292 293 293 292 292 291 290 290 291 290 291 292 290 290 292 291 293 293 293 293 293 293 292 292 292 292 292 291 291 292 292 291 292 292 291 291 290
297 296 295 295 294 293 292 291 292 291 291 292 293 294 295 295 294 295 295 295 294 296 294 294 294 294 294 293 292 291 290 291 290 290 291 289 291 291 291 290 291 291 293 293 292 292 292 291 291 291 291 291 291 291 291 290 290 290 290 290 290 289
296 294 295 295 296 295 293 292 292 292 292 293 293 292 293 294 293 294 295 295 295 295 296 295 295 294 294 294 292 291 291 290 290 290 290 289 290 290 291 290 290 290 291 292 292 291 291 290 290 290 290 290 290 290 290 290 290 289 289 288 288 288
295 295 294 295 293 293 293 294 294 291 291 291 292 290 292 293 292 293 294 294 294 296 297 297 294 293 292 290 290 290 290 290 289 288 289 289 290 290 290 290 290 290 290 290 290 290 289 289 289 289 289 289 289 290 290 290 289 289 288 287 287 286
293 293 293 292 292 293 293 294 294 294 293 294 293 291 292 289 291 293 294 294 295 297 297 294 291 290 289 289 290 289 288 288 288 288 288 289 289 289 288 288 288 289 290 289 289 288 288 288 288 288 289 290 289 289 289 289 289 288 288 286 285 285
293 292 292 293 293 293 294 294 294 294 293 293 292 292 291 288 290 291 292 294 295 296 294 292 291 289 289 289 287 287 288 288 288 288 288 288 288 288 287 287 287 287 288 289 289 287 287 287 288 288 290 291 291 289 288 288 287 287 287 286 285 283
292 292 292 293 293 293 293 294 294 293 293 294 293 292 289 288 290 291 292 293 294 294 293 292 290 290 290 289 289 289 289 288 288 288 288 288 287 287 286 286 287 287 287 288 288 287 287 287 287 289 290 291 291 289 288 287 287 286 286 285 284 283
292 292 292 292 293 294 294 293 292 293 294 294 294 289 288 288 289 290 291 292 292 292 291 290 290 290 289 289 289 288 288 288 288 288 287 287 287 285 285 286 286 286 286 287 287 286 286 286 288 289 290 290 291 291 288 286 286 285 285 284 283 282
292 292 291 291 291 292 292 290 290 292 292 291 291 290 290 288 289 289 290 291 291 291 290 289 289 290 290 288 287 287 287 287 288 288 287 286 284 285 285 284 285 285 285 286 286 286 286 286 287 289 290 290 290 291 289 286 285 285 284 283 283 282
290 290 291 291 291 290 289 290 291 290 290 291 291 290 289 288 288 288 289 289 290 289 289 289 289 289 288 287 287 287 287 287 287 286 285 285 285 285 285 285 284 284 284 285 286 286 286 285 287 289 289 290 290 291 289 285 285 284 284 283 282 281
290 289 290 289 288 289 288 289 289 288 290 289 289 289 288 287 287 288 288 288 288 288 288 288 288 288 288 287 286 286 287 286 286 286 284 284 283 284 283 283 284 284 284 284 284 285 284 284 287 288 289 290 290 291 287 285 284 283 282 282 281 281
288 289 287 287 287 287 288 288 287 287 288 289 290 288 288 287 288 288 288 288 288 288 287 287 288 288 287 286 286 286 286 286 285 284 283 283 283 283 283 283 283 284 285 285 284 284 284 284 286 288 289 289 290 290 285 284 283 282 281 281 280 281
288 288 286 286 287 288 287 285 285 285 286 287 288 287 288 287 288 288 288 288 288 287 286 286 287 287 287 286 286 287 286 285 284 284 283 284 283 282 282 282 282 283 284 284 284 284 283 283 284 287 289 289 290 288 284 283 282 281 280 280 280 281
288 286 286 287 287 289 287 285 284 285 286 287 287 286 286 287 288 288 288 288 288 286 286 286 286 287 287 287 287 286 285 284 284 283 282 283 283 283 281 282 282 281 283 284 284 284 283 283 284 287 288 289 290 287 284 283 281 280 279 279 279 281
285 286 287 287 288 288 286 284 284 285 286 286 285 285 286 287 288 288 287 286 286 286 286 286 286 286 287 287 286 284 284 283 281 281 281 281 282 281 281 281 282 282 282 283 283 283 283 283 283 286 289 289 289 288 283 282 281 279 279 279 279 280
286 286 287 287 287 286 285 284 284 286 286 286 285 286 287 287 286 286 286 285 285 285 285 285 285 286 286 285 285 283 281 281 281 280 281 280 280 280 279 280 281 282 282 282 282 282 282 283 283 285 288 289 289 287 284 281 281 280 279 279 279 280
286 286 287 286 285 284 283 282 283 285 285 285 285 286 287 286 285 285 284 284 284 284 283 283 283 283 284 280 280 280 280 278 280 281 281 280 280 280 280 280 281 281 280 280 281 281 281 283 284 284 286 288 288 287 285 282 281 281 279 279 279 280
287 287 287 288 285 283 282 280 283 285 285 285 286 286 285 284 284 283 283 283 282 282 281 281 280 282 279 279 280 280 279 278 279 279 280 279 279 279 280 280 280 280 279 279 280 280 281 282 283 284 285 287 287 286 285 284 282 283 281 279 279 280
287 287 287 287 287 284 281 280 283 284 284 285 286 285 284 283 282 281 281 281 280 279 278 277 276 277 277 278 279 279 279 279 279 279 279 280 279 279 279 280 279 279 278 278 278 280 280 282 283 284 285 285 286 286 285 285 284 284 281 281 280 281
286 286 286 287 287 287 285 280 282 282 283 285 284 284 283 282 281 279 280 280 278 276 274 275 275 275 275 276 279 279 279 278 279 279 278 279 280 280 279 279 279 278 278 278 278 279 280 281 283 283 284 284 285 285 285 285 285 284 283 281 281 282
285 285 285 286 286 286 286 283 279 282 285 285 283 282 281 280 279 279 280 278 275 275 273 274 274 274 274 276 278 280 280 280 280 279 279 279 280 280 279 278 278 278 278 278 278 278 279 281 282 283 283 284 284 284 285 285 284 284 283 282 283 284
285 285 285 285 286 285 285 284 283 282 283 283 283 281 279 278 278 279 279 277 275 273 273 274 275 274 274 274 276 277 279 280 280 280 280 280 280 279 279 279 278 278 278 277 278 278 279 280 281 282 282 283 283 283 284 284 283 284 284 283 283 284
284 284 283 284 285 284 284 283 283 282 282 281 280 278 277 278 279 279 279 277 274 275 274 275 277 276 275 276 278 278 278 278 280 281 281 280 280 279 279 278 278 278 278 277 278 278 279 280 281 281 281 282 282 282 283 283 283 283 283 282 283 284
283 283 283 283 284 283 283 283 283 282 280 280 279 277 277 279 279 279 277 275 274 275 276 275 275 275 276 276 277 277 279 279 280 281 281 282 282 282 281 279 279 279 279 279 278 278 278 279 280 281 284 283 283 283 282 282 282 282 282 283 284 282
282 282 282 283 283 282 282 282 282 281 280 278 277 276 277 278 279 277 278 276 276 275 275 275 275 275 275 275 276 276 276 282 283 282 281 281 283 283 284 283 281 281 280 279 279 280 279 279 281 284 285 284 285 285 284 284 284 283 282 284 284 281
282 281 281 282 283 282 282 282 281 280 278 277 277 276 277 277 278 278 278 277 277 277 277 276 276 276 275 276 276 276 277 277 281 283 283 283 283 283 283 283 283 282 282 280 278 280 282 283 284 285 285 285 285 285 285 284 284 284 284 284 281 278
281 281 281 282 282 281 281 281 281 279 277 276 276 276 277 277 278 279 279 278 277 278 278 276 276 277 277 276 276 278 278 278 278 279 283 283 283 283 283 283 283 283 282 282 280 279 280 283 285 285 285 285 285 285 284 284 285 285 285 283 281 275
280 280 280 280 280 280 280 280 280 279 277 276 275 275 276 277 278 278 278 278 278 278 278 278 277 278 277 277 276 277 278 279 279 278 279 281 283 283 283 283 283 283 283 282 281 281 281 283 284 285 285 285 285 284 284 284 285 285 284 283 278 275
279 279 279 279 279 279 279 278 279 279 277 275 275 275 276 277 278 278 279 278 278 278 278 278 277 278 278 278 277 277 277 279 280 280 279 279 279 281 282 283 283 283 283 283 282 282 282 283 284 285 285 284 284 284 284 284 283 284 284 281 276 274
277 278 278 278 278 278 277 277 278 278 276 275 275 275 276 277 278 278 278 278 278 279 278 278 277 278 279 279 278 278 278 278 279 279 279 279 278 278 278 279 281 283 283 281 282 282 282 283 284 285 285 285 284 284 284 285 282 281 280 278 275 274
275 276 277 277 276 276 276 276 277 275 275 274 274 275 276 278 278 279 279 279 279 279 278 278 278 279 279 279 279 279 279 278 278 278 279 279 278 278 278 278 279 280 282 282 282 282 283 283 284 284 284 284 284 284 284 281 280 279 278 275 274 274
Wind_Speed
5 5 7 6 6 6 7 6 5 5 6 6 7 10 10 9 7 6 7 8 8 8 9 9 8 7 7 6 6 6 8 9 8 8 8 6 6 7 7 7 7 7 7 7 7 7 9 8 8 7 6 6 7 8 8 7 7 8 9 9 9 10
6 6 6 6 6 6 6 5 4 7 8 7 8 7 6 5 6 6 8 8 7 7 5 6 6 6 7 7 7 8 9 9 8 8 7 8 6 7 8 8 8 8 8 7 7 7 7 7 7 7 7 6 7 6 7 6 7 7 8 7 6 6
6 7 7 7 5 4 4 4 7 8 5 7 7 8 8 8 8 7 9 5 7 6 8 7 6 7 6 6 7 8 9 8 7 7 7 5 7 7 8 8 8 8 9 8 9 8 8 8 8 7 6 7 7 7 7 6 7 8 8 7 7 5
8 10 6 4 4 6 5 6 5 6 7 8 7 6 8 7 8 8 7 5 6 7 7 6 5 6 6 8 8 9 9 8 7 7 5 7 7 7 8 8 8 7 8 8 8 8 8 8 9 7 7 8 8 7 6 7 8 8 8 7 8 7
9 7 5 5 5 5 5 5 7 8 8 6 6 7 10 8 9 6 5 6 6 7 6 6 7 6 7 9 9 9 9 7 6 5 7 7 6 6 7 8 8 8 8 8 8 8 8 8 8 7 8 9 9 9 8 7 8 9 9 9 9 9
5 5 6 6 5 5 7 8 7 7 6 6 6 9 11 7 7 6 6 7 7 6 6 8 7 7 8 9 9 9 8 7 6 5 7 6 5 7 7 6 7 7 8 8 8 7 7 8 7 7 8 9 9 9 9 8 9 9 9 9 9 8
9 8 8 5 4 6 6 7 7 6 7 5 7 9 8 7 6 7 7 7 9 8 8 9 7 8 9 11 8 9 7 7 6 6 7 6 7 6 6 6 5 6 7 8 8 8 8 8 8 9 9 8 8 9 9 9 9 9 9 9 9 9
9 10 9 7 7 6 6 5 6 6 6 7 7 8 7 8 5 7 8 8 8 9 10 10 8 10 11 11 9 10 8 7 7 8 7 7 8 7 7 8 7 8 8 8 8 8 9 8 9 9 10 9 8 8 7 7 8 8 8 8 8 9
13 9 8 9 9 7 6 6 6 5 5 7 7 7 7 7 6 7 8 8 8 8 10 11 12 13 13 12 11 8 8 9 8 8 9 7 8 8 8 7 8 7 8 9 8 8 8 8 8 8 8 8 7 8 7 7 7 7 7 7 8 8
10 10 10 11 12 10 9 6 6 6 6 8 6 5 6 7 6 7 8 8 9 10 12 13 12 10 11 11 10 10 10 9 8 8 7 6 9 9 9 9 9 8 8 8 8 8 8 7 7 7 7 7 7 7 7 7 8 8 7 6 6 7
10 10 10 11 9 10 10 10 10 6 6 7 8 5 8 6 5 8 9 8 9 13 14 12 9 7 7 6 6 8 9 9 7 7 7 8 8 8 8 8 8 8 8 7 7 7 7 7 8 7 7 8 8 8 8 8 8 8 8 6 6 6
7 8 8 10 9 10 10 10 9 9 8 9 7 6 8 4 6 8 9 9 12 13 11 7 5 5 4 5 7 6 5 5 7 8 8 9 9 8 7 7 7 8 9 8 8 7 6 7 6 8 12 11 8 8 7 7 8 7 7 7 7 6
8 8 8 9 9 9 9 9 9 9 9 8 8 8 5 4 7 8 8 11 12 11 8 6 7 5 6 7 5 5 6 7 7 8 8 9 8 8 7 7 8 8 7 8 8 8 7 6 6 11 11 13 12 8 7 8 7 7 7 8 9 9
8 8 9 9 9 9 8 9 9 8 10 8 8 7 3 5 6 8 9 11 10 9 8 8 6 7 8 7 9 9 9 7 8 9 9 8 9 8 6 8 9 7 7 7 7 8 8 7 8 11 13 13 13 10 8 7 6 7 7 8 8 8
7 7 8 7 9 9 9 7 8 9 9 9 8 5 4 5 6 7 9 9 9 9 7 6 7 8 7 9 9 7 7 8 9 9 9 11 8 5 9 9 7 8 7 8 9 8 8 7 9 11 12 14 13 13 10 6 7 7 7 8 8 9
7 7 6 7 8 7 8 7 7 9 9 9 9 7 6 5 6 6 9 8 8 8 7 7 7 8 8 5 5 5 6 8 10 9 7 6 5 8 8 6 8 7 8 8 9 9 8 8 9 12 13 14 15 13 10 6 7 7 8 9 9 8
7 8 9 9 8 9 10 11 8 9 9 8 9 8 6 5 6 7 8 8 8 6 7 6 6 7 6 5 5 6 7 8 6 6 6 7 8 9 10 10 10 9 8 8 8 8 8 7 10 13 14 14 15 13 11 5 6 6 6 7 8 9
7 7 9 8 8 9 7 8 9 9 11 8 8 9 7 6 6 8 7 8 7 7 6 5 7 7 6 6 6 7 8 8 8 9 7 7 7 6 5 5 6 8 8 7 7 7 8 6 10 12 14 14 14 15 8 6 7 7 6 6 8 8
7 8 6 7 7 8 8 7 7 8 9 10 9 7 8 7 8 9 7 8 8 7 6 6 7 7 7 6 7 9 9 9 9 8 6 8 8 8 8 9 8 7 8 8 7 8 7 5 9 13 14 15 16 12 7 7 7 7 7 7 8 8
7 6 5 8 10 9 6 5 7 7 8 9 8 8 9 7 9 9 8 9 8 6 5 6 6 7 7 7 9 10 9 8 6 7 7 9 9 9 9 7 7 6 6 8 8 8 7 6 8 13 14 15 16 12 8 7 7 6 6 6 6 7
8 9 9 8 9 10 7 7 6 7 9 9 8 7 9 10 9 9 9 10 8 6 6 6 6 7 7 8 9 8 8 8 9 6 6 7 6 7 6 6 6 5 5 6 7 7 8 5 6 12 15 15 16 12 7 7 6 7 6 7 6 6
6 8 9 9 11 10 9 8 8 9 9 9 7 9 10 10 9 9 7 8 8 7 7 6 7 7 8 9 7 6 7 5 4 5 6 6 6 6 6 6 6 7 6 5 6 6 7 6 5 7 14 16 16 13 9 7 8 8 8 7 8 7
5 8 8 8 9 8 8 7 8 11 10 9 9 11 11 9 8 8 8 8 7 7 7 6 6 8 7 6 6 5 4 4 6 5 6 6 5 5 5 6 5 6 5 5 5 5 5 6 6 6 11 12 13 16 13 8 8 7 8 7 8 8
7 8 8 5 6 5 5 5 7 9 9 9 12 12 9 8 9 9 8 8 8 7 6 6 6 5 5 4 4 4 5 4 4 6 6 6 6 7 6 5 5 5 5 4 4 5 6 5 8 6 10 11 13 15 14 8 7 9 10 9 8 8
9 10 10 7 5 4 4 5 8 10 9 11 13 9 8 9 9 8 8 7 7 7 6 5 5 6 3 4 4 5 5 4 5 5 6 6 6 6 7 7 6 5 5 4 3 3 4 4 5 8 6 11 12 14 13 13 10 15 10 11 10 10
9 10 11 11 8 5 3 3 7 8 10 14 12 8 8 8 8 7 7 7 7 6 6 5 4 4 4 4 4 4 5 6 5 5 6 6 7 7 7 5 5 5 5 5 4 3 3 3 4 5 8 9 14 15 15 14 16 16 9 9 9 8
10 12 13 11 9 9 6 3 6 10 11 11 7 9 9 9 8 7 8 8 7 5 4 2 2 3 4 4 6 6 6 5 6 6 4 6 6 6 7 6 5 6 6 5 6 4 4 3 4 4 8 11 12 15 15 15 17 16 14 9 7 9
10 10 11 14 9 9 9 6 4 10 15 11 7 8 8 8 8 8 9 8 6 5 3 3 2 2 3 4 5 6 6 8 8 7 6 6 6 6 6 6 6 5 5 5 4 5 4 4 4 5 5 7 9 10 14 15 15 15 14 11 10 13
12 13 13 15 12 8 9 9 8 8 11 11 9 8 7 7 7 9 8 7 7 4 3 4 4 3 3 4 3 4 5 5 6 7 7 7 7 7 6 7 7 6 6 6 5 5 5 5 5 5 6 6 6 6 9 11 11 14 13 10 10 12
9 12 12 14 13 10 10 10 10 10 10 10 9 7 6 7 7 8 8 7 5 5 4 5 5 4 4 4 5 6 5 5 6 8 9 10 9 9 8 9 9 10 10 9 8 7 6 7 6 6 7 8 8 8 8 8 9 9 9 9 10 10
13 13 12 13 11 10 11 12 11 10 10 10 8 6 6 8 7 8 7 6 5 6 4 4 4 5 5 5 5 5 5 7 7 7 6 6 6 8 10 11 9 8 8 8 10 10 8 7 9 10 8 8 9 9 9 10 9 8 8 10 13 10
11 13 15 13 10 9 10 12 12 10 9 9 8 6 7 8 8 7 8 7 6 6 5 5 5 4 5 5 5 5 3 1 4 3 4 5 5 3 1 4 6 6 7 8 7 7 10 11 8 10 15 14 14 13 12 10 11 11 11 17 21 13
12 12 14 15 12 11 11 11 11 10 9 8 8 7 8 7 8 8 8 7 7 7 7 6 6 6 5 5 5 4 5 2 1 3 4 3 3 4 4 5 5 6 6 6 6 3 3 6 12 16 15 16 15 15 16 16 16 19 22 22 15 11
12 12 14 14 14 14 13 13 12 7 7 7 7 7 8 8 8 9 9 7 7 7 7 6 6 6 6 6 5 5 5 5 4 2 5 7 7 6 7 7 7 9 10 9 8 6 4 10 15 18 19 18 18 17 18 19 20 22 22 21 16 10
13 13 13 13 14 15 15 14 14 9 6 7 6 6 8 9 9 10 9 7 7 7 8 7 7 7 7 7 7 6 6 6 6 6 4 5 7 8 8 9 10 12 13 13 13 12 10 12 15 20 21 21 20 19 19 20 21 22 22 18 10 9
14 14 14 13 14 14 14 15 15 10 8 7 6 7 9 10 10 10 9 8 7 7 7 7 7 7 7 7 7 7 6 6 5 6 6 6 6 6 7 11 13 14 15 16 16 14 13 16 19 20 21 22 21 20 20 19 15 19 19 12 8 8
17 16 14 15 15 14 13 14 14 10 9 8 7 7 9 10 10 9 10 12 9 7 8 7 6 7 6 6 7 6 6 6 5 5 7 7 8 8 7 5 7 11 13 10 12 15 16 18 20 20 20 22 22 21 21 19 12 12 10 7 6 7
15 15 14 13 13 12 13 15 10 8 9 8 8 8 9 9 9 9 9 8 9 9 7 7 7 6 6 6 6 6 6 5 5 5 5 4 5 5 6 5 5 5 9 13 11 15 17 19 22 20 20 20 21 20 21 12 10 9 8 7 6 7
Wind_Direction
272 260 258 255 245 240 235 233 217 225 229 228 224 230 228 229 224 223 228 220 220 218 219 216 219 221 222 222 220 212 215 219 216 216 219 212 203 203 202 204 207 209 217 220 223 221 225 225 224 219 221 214 218 215 217 210 198 204 209 209 202 208
275 266 258 260 250 247 244 232 223 230 227 226 235 246 253 252 239 227 232 227 225 232 227 229 224 223 221 217 213 217 221 221 215 217 216 213 200 205 201 203 203 202 209 216 220 224 224 225 228 215 212 204 215 208 209 203 187 198 209 211 210 197
292 283 265 263 277 274 269 235 229 233 223 231 230 233 241 240 238 232 238 226 234 230 231 228 221 227 222 227 221 226 228 224 218 216 214 198 209 195 202 204 203 203 206 208 213 218 219 219 223 220 211 210 212 210 205 195 192 197 205 194 202 207
275 269 270 263 280 276 257 245 245 247 229 229 226 229 239 235 241 235 243 234 235 230 233 231 228 223 223 225 225 228 229 224 219 213 203 209 210 193 202 204 201 201 205 212 209 213 219 220 222 215 209 212 213 211 202 196 194 199 202 191 199 196
238 255 277 277 255 256 256 256 236 235 233 228 225 222 239 223 230 225 229 232 232 235 230 230 230 221 226 227 229 231 228 225 222 209 209 212 208 206 201 200 198 198 202 211 213 208 215 217 218 212 207 215 212 208 206 200 195 197 196 195 200 194
339 329 290 269 260 253 245 238 240 241 238 226 220 228 236 227 229 224 213 221 230 228 225 228 227 224 227 229 231 232 227 220 221 210 218 213 202 203 208 200 196 195 200 208 211 208 210 214 216 213 212 214 211 211 208 202 201 201 200 199 194 185
319 300 284 280 262 255 250 247 243 240 242 227 224 236 234 229 220 215 224 218 219 218 222 227 218 225 228 232 230 231 222 219 216 214 216 208 213 209 198 204 192 194 199 208 209 206 209 211 208 211 213 216 212 210 207 204 204 203 201 198 194 186
297 289 289 307 289 268 261 251 247 248 246 241 231 238 237 232 213 220 218 219 225 228 219 221 213 222 228 229 229 226 216 212 211 212 217 205 211 208 206 197 195 194 202 209 211 207 210 209 209 212 212 210 208 210 208 204 202 206 203 197 190 184
284 289 303 290 293 285 273 275 280 265 254 260 246 238 239 234 214 220 221 223 224 231 234 231 222 213 213 217 221 214 211 213 211 206 212 203 207 206 206 206 200 201 200 208 206 209 207 209 209 213 213 211 207 205 203 201 201 201 202 197 188 180
293 293 288 298 297 305 306 299 272 269 266 266 264 239 237 236 218 222 225 225 228 232 237 231 230 232 229 218 202 202 207 208 207 208 205 197 209 209 206 203 201 204 200 204 205 208 205 206 209 210 210 208 205 203 205 199 198 197 196 190 181 175
281 286 291 294 304 309 310 306 305 296 279 263 265 250 240 228 213 225 228 228 231 235 236 237 231 228 232 229 226 215 208 204 200 198 200 203 212 209 210 205 201 198 205 205 203 204 201 206 207 201 199 200 203 201 201 200 198 194 187 180 175 173
295 299 302 305 302 296 295 300 299 297 292 285 272 255 253 195 223 227 232 230 234 240 244 249 256 249 252 234 228 227 215 200 198 198 204 209 209 209 204 203 206 207 202 200 206 204 202 209 207 203 203 203 199 196 197 194 196 188 179 172 170 168
298 296 296 286 288 287 292 293 294 300 298 284 282 269 260 190 229 230 233 237 238 243 247 241 234 213 217 217 224 218 206 207 202 204 210 211 207 207 202 198 207 210 207 203 200 205 208 210 207 205 204 204 196 191 190 189 191 184 177 178 174 175
307 307 302 301 301 303 302 303 306 307 296 292 285 279 245 207 228 233 238 242 250 250 247 242 231 217 222 207 216 207 207 200 199 207 209 207 208 208 191 204 208 203 204 204 205 207 207 209 207 205 206 203 194 186 188 187 184 182 182 181 178 172
310 304 304 305 305 310 307 311 311 302 298 302 295 294 241 233 230 240 246 250 248 251 248 243 234 236 230 223 217 206 196 200 205 210 207 210 204 184 200 209 199 206 202 202 204 209 205 210 203 200 198 201 196 188 187 186 182 179 184 179 176 168
311 306 296 291 293 295 298 305 293 291 296 296 303 304 284 260 261 244 255 255 251 248 242 237 234 237 237 231 220 206 208 207 215 213 208 197 186 198 205 203 205 203 203 202 204 206 205 208 203 197 198 203 201 189 180 187 180 184 181 179 174 171
306 314 320 323 321 316 324 320 320 315 312 313 313 306 303 283 273 268 261 264 264 257 248 241 239 242 241 223 212 210 215 216 219 208 201 196 196 196 200 199 202 205 202 204 204 205 205 209 196 196 200 202 199 189 180 178 178 178 181 179 176 173
314 303 303 307 316 315 315 304 316 322 310 314 308 309 308 297 283 275 275 272 270 261 255 241 243 240 234 220 212 212 217 212 207 205 195 195 205 213 209 218 206 204 205 205 201 200 209 205 191 194 198 199 199 189 182 176 179 179 176 175 174 171
305 304 299 303 304 307 307 307 314 310 308 312 308 311 304 307 294 286 283 276 270 262 252 238 238 240 231 217 213 217 216 210 209 206 182 193 198 197 200 204 202 202 200 198 199 199 209 209 198 197 198 199 196 182 178 176 177 175 173 174 169 167
306 305 313 312 312 302 297 305 306 307 304 301 304 310 302 301 288 287 287 280 276 268 254 239 231 237 231 217 220 219 218 213 208 200 186 195 192 201 203 197 197 198 198 196 199 196 198 208 199 198 200 197 196 182 177 175 172 168 163 158 161 159
314 310 317 313 312 313 321 316 310 309 306 305 305 303 296 289 285 284 281 282 282 272 254 240 232 232 229 226 227 219 215 206 204 194 186 201 193 201 184 186 189 193 195 200 198 193 194 197 201 199 201 198 199 182 166 165 160 157 162 158 153 155
309 313 314 314 307 312 317 318 318 311 305 304 304 297 288 283 279 281 280 278 277 271 261 242 237 235 227 231 227 217 216 197 184 183 186 197 188 185 178 184 186 187 195 186 188 192 189 188 199 197 199 200 197 165 163 164 163 168 162 160 154 148
292 287 288 289 292 299 307 313 317 310 309 308 306 295 289 290 291 285 279 275 273 268 258 250 236 240 237 226 223 208 197 183 187 178 183 182 175 166 173 178 180 182 184 180 185 183 189 189 190 200 197 192 172 166 162 175 170 157 151 154 153 153
299 290 292 284 275 276 286 297 299 294 299 302 295 289 293 299 291 286 283 276 269 268 264 257 253 246 244 221 184 177 195 194 177 183 178 171 168 172 177 173 173 175 176 179 181 186 191 190 192 189 203 184 170 169 162 154 166 160 156 152 157 157
313 314 310 312 310 299 294 303 299 299 299 293 285 292 297 292 290 285 280 276 274 267 261 257 246 240 212 198 188 184 186 178 172 176 170 167 169 172 173 174 171 167 172 174 186 189 193 191 193 192 189 182 162 165 162 166 159 164 160 161 168 172
312 314 315 318 321 315 294 270 289 292 295 290 297 301 297 293 286 285 279 273 267 269 265 254 243 222 196 189 176 177 171 175 176 172 177 173 169 169 171 179 169 166 171 176 186 190 192 193 171 187 173 171 167 171 170 170 165 168 169 164 160 159
314 315 314 314 321 319 320 305 293 297 290 286 300 296 301 301 297 286 276 270 270 265 264 254 226 205 188 186 173 173 176 174 169 173 183 171 175 174 175 177 176 179 181 179 183 183 176 177 175 176 178 172 174 172 171 167 165 165 156 153 158 155
317 312 310 310 316 317 314 312 299 298 295 302 297 288 289 292 290 281 270 273 270 264 249 222 230 203 198 192 194 189 182 174 177 176 175 174 182 179 177 172 174 179 172 182 173 173 170 164 171 173 168 169 168 164 156 156 160 161 160 152 157 157
321 317 316 311 313 317 308 310 299 277 286 295 294 290 286 280 272 270 272 267 264 263 244 227 225 215 208 200 196 191 183 182 178 174 176 182 180 182 180 176 175 173 172 175 175 167 167 169 179 173 164 162 157 154 154 158 164 161 155 153 153 149
307 307 309 307 310 316 307 302 297 295 294 293 291 283 280 272 263 262 264 258 250 246 235 233 226 211 209 209 191 183 191 197 190 187 190 186 187 183 189 183 183 183 181 180 174 170 167 178 180 180 174 169 164 164 163 164 164 162 160 156 156 154
312 306 304 299 303 307 304 301 300 300 297 291 290 279 268 264 261 259 262 257 242 242 228 225 226 216 211 214 216 213 203 191 194 201 211 222 202 196 189 188 194 193 188 177 173 169 176 180 191 194 175 171 168 167 165 167 165 156 152 150 138 130
300 304 304 300 301 301 300 300 299 299 296 293 286 269 258 262 262 259 255 241 235 232 223 216 213 215 216 217 215 210 226 247 201 232 225 223 206 185 32 210 208 193 174 175 187 186 186 191 181 159 166 167 168 167 161 152 146 143 140 142 137 132
305 303 301 302 309 305 301 297 295 296 293 286 280 265 256 256 259 257 253 238 235 224 214 208 204 204 202 208 208 206 197 186 73 103 110 111 120 131 142 170 158 156 165 168 164 150 93 133 153 161 162 161 161 160 157 156 146 145 147 141 132 133
306 304 302 305 307 305 304 301 296 291 285 279 268 256 254 249 245 253 250 237 236 224 217 205 198 190 186 197 192 195 200 196 182 134 149 143 146 152 162 165 160 170 171 168 160 150 132 162 164 164 163 161 163 157 156 159 158 154 150 148 131 123
303 300 299 301 302 302 301 299 297 304 293 281 263 251 250 249 243 250 253 242 232 226 218 209 202 193 187 187 184 195 194 198 198 183 160 158 160 169 178 181 185 185 182 173 171 173 170 167 167 167 165 163 159 154 153 155 157 156 153 141 137 141
300 298 298 299 298 295 296 295 295 306 298 288 270 253 249 250 245 244 244 237 225 221 222 216 210 203 200 187 187 187 187 199 198 194 176 159 157 178 195 200 195 190 183 181 175 175 175 172 169 166 162 158 155 152 150 151 153 155 157 149 142 144
298 297 297 299 296 294 292 287 292 305 300 294 278 262 257 253 251 251 247 239 227 218 221 215 210 211 205 195 186 182 183 184 190 182 181 179 177 176 175 166 184 189 181 174 175 174 171 174 172 169 164 161 159 162 162 157 155 160 166 155 150 156
291 290 295 296 290 289 289 286 294 296 294 292 282 273 265 262 255 253 250 242 229 222 217 206 208 205 202 200 192 182 176 170 170 179 178 160 149 152 146 142 155 154 175 171 173 174 173 174 175 171 167 164 165 166 168 168 173 168 165 159 165 170